Home   Weather   Húsavík   Past weeks
Flag for Iceland

Past Weather in Húsavík, Iceland — Yesterday and Last 2 Weeks

Now
59 °F

Partly sunny.


Feels Like: 58 °F
Forecast: 53 / 49 °F
Wind: 7 mph from West

Location: Akureyri Airport

Current Time: Jun 24, 2019 at 11:41:05 am

Latest Report: Jun 24, 2019 at 11:00 am


Visibility: N/A

Pressure: 30.24 "Hg

Humidity: 39%

Dew Point: 34 °F

Location of HúsavíkLocation

Past Weather in Húsavík — Graph

°F

Húsavík Temperature Yesterday

Maximum temperature yesterday: 64 °F (at 1:00 pm)
Minimum temperature yesterday: 39 °F (at 3:00 am)
Average temperature yesterday: 55 °F

High & Low Weather Summary for the Past Weeks

 TemperatureHumidityPressure
High68 °F (Jun 15, 4:00 pm)94% (Jun 13, 8:00 am)30.69 "Hg (Jun 13, 8:00 am)
Low36 °F (Jun 11, 4:00 am)28% (Jun 23, 3:00 pm)29.71 "Hg (Jun 18, 4:00 am)
Average49 °F72%30.07 "Hg
* Reported Jun 9 10:00 am — Jun 24 10:00 am, Húsavík. Weather by CustomWeather, © 2019

Note: Actual official high and low records may vary slightly from our data, if they occured in-between our weather recording intervals... More about our weather records

Advertising

Húsavík Weather History for the Previous 24 Hours

Scroll right to see more
 ConditionsComfort  
Time TempWeatherWind HumidityBarometerVisibility
10:00 am
Mon, Jun 24
57 °FPartly sunny.8 mph39%30.24 "HgN/A
9:00 am57 °FPartly sunny.10 mph48%30.21 "HgN/A
8:00 am55 °FMostly cloudy.9 mph55%30.21 "HgN/A
7:00 am55 °FOvercast.10 mph55%30.21 "HgN/A
6:00 am55 °FOvercast.9 mph59%30.21 "HgN/A
5:00 am54 °FOvercast.8 mph67%30.18 "HgN/A
4:00 am54 °FOvercast.10 mph63%30.18 "HgN/A
3:00 am54 °FOvercast.3 mph72%30.18 "HgN/A
2:00 am55 °FOvercast.2 mph67%30.18 "HgN/A
1:00 am55 °FOvercast.7 mph63%30.18 "HgN/A
12:00 am57 °FOvercast.6 mph59%30.15 "HgN/A
11:00 pm
Sun, Jun 23
57 °FOvercast.No wind63%30.15 "HgN/A
10:00 pm59 °FPartly sunny.7 mph51%30.15 "HgN/A
9:00 pm61 °FScattered clouds.7 mph48%30.12 "HgN/A
8:00 pm63 °FScattered clouds.8 mph42%30.09 "HgN/A
7:00 pm64 °FScattered clouds.6 mph30%30.09 "HgN/A
6:00 pm63 °FScattered clouds.7 mph37%30.07 "HgN/A
5:00 pm63 °FScattered clouds.8 mph37%30.07 "HgN/A
4:00 pm64 °FScattered clouds.9 mph30%30.07 "HgN/A
3:00 pm64 °FScattered clouds.12 mph28%30.07 "HgN/A
2:00 pm64 °FScattered clouds.12 mph30%30.07 "HgN/A
1:00 pm64 °FScattered clouds.9 mph30%30.07 "HgN/A
12:00 pm63 °FPassing clouds.10 mph30%30.07 "HgN/A
11:00 am61 °FPassing clouds.10 mph29%30.07 "HgN/A
Weather by CustomWeather, © 2019

See weather overview